Погода в Хулимсунте

Россия / Ханты-Мансийский автономный округ - Югра     62°52′07″N   61°38′02″E
темп.,
°C
ветер,
м/с
пор.,
м/с
влажн.,
%
обл.,
%
осадки,
мм/ч
давл.,
гПа
погр.,
м
15 апреля, чт
чт1523:00+10юз51587100 0.0 1014616
02:00+11юз61779100 0.0 1011727
05:00+11юз61674100 0.0 1009748
08:00+11зюз61578100 0.0 10091424
11:00+6зсз5127081 0.3 10131239
14:00+7сз61055100 0.0 10151808
17:00+6сз61053100 0.0 10171739
20:00+3зсз4106052 0.0 1018744
16 апреля, пт
пт1623:00+1зсз511660 0.0 1020778
02:000сз511610 0.0 10221038
05:00−3ссв25695 0.0 1026310
08:00−2св12480 0.0 1028637
11:00+1ююз233947 0.0 10281016
14:00+4юз4636100 0.0 10261662
17:00+4з4949100 0.0 10241790
20:00+3з4968100 0.1 10221013
17 апреля, сб
сб1723:00+1сз613663 0.5 10231301
02:00−2сз4106036 0.0 1025479
05:00−3сз2761100 0.0 1026348
08:00−1ссз1145100 0.0 1026434
11:00+2з463489 0.0 10231702
14:00+2з4845100 0.0 10201552
17:00+1ююз3798100 1.4 1014321
20:00+3зсз8176535 1.6 10101713
18 апреля, вс
вс1823:00−2ссз51087100 1.7 1014674
02:00−4с5985100 0.2 1017684
05:00−6св5106764 0.3 1023756
08:00−5св574949 0.0 1027939
11:00−3ссв454041 0.0 10301397
14:00−1с4638100 0.0 10322056
17:00−1с4637100 0.0 10332139
20:00−3с254831 0.0 1033196
19 апреля, пн
пн1923:00−4св36562 0.0 1034388
02:00−5ссв24571 0.0 1035213
05:00−6с12605 0.0 103668
08:00−4вюв10449 0.0 1036477
11:00−1зюз133638 0.0 10351249
14:00+2зсз233162 0.0 10331646
17:00+2ссз3429100 0.0 10321576
20:00−1зсз2553100 0.0 1032148